Regional Weather Roundup
Issued by NWS Cleveland, OH

Home | Current Version | Previous Version | Text Only | Print | Product List | Glossary On
Versions: 1 2 3 4 5 6 7 8 9 10 11 12 13 14 15 16 17 18 19 20 21 22 23 24 25 26 27 28 29 30 31 32 33 34 35 36 37 38 39 40 41 42 43 44 45 46 47 48 49 50
000
ASUS41 KCLE 301610
RWRCLE
OHIO REGIONAL WEATHER ROUNDUP
NATIONAL WEATHER SERVICE WILMINGTON, OH
1200 PM EDT SUN AUG 30 2015

NOTE: "FAIR" INDICATES FEW OR NO CLOUDS BELOW 12,000 FEET WITH NO
SIGNIFICANT WEATHER AND/OR OBSTRUCTIONS TO VISIBILITY.

OHZ001>008-015>018-024>027-034-035-043-044-301700-
   NORTHWEST OHIO

CITY           SKY/WX    TMP DP  RH WIND       PRES   REMARKS
DEFIANCE       MOSUNNY   78  69  73 SW6       30.08S
FINDLAY        SUNNY     81  69  67 SW8       30.09S
TOLEDO EXPRESS PTSUNNY   78  70  76 SW9       30.08S
TOLEDO EXEC    MOSUNNY   78  69  73 SW9       30.09S
LIMA           MOSUNNY   78  68  71 SW8       30.10S
$$

OHZ009>014-019>023-028>033-038-089-301700-
   NORTHEAST OHIO

CITY           SKY/WX    TMP DP  RH WIND       PRES   REMARKS
CLE-HOPKINS    PTSUNNY   74  69  85 S5        30.13F
CLE-LAKEFRONT  PTSUNNY   74  68  81 S8        30.10S
CUY CO. ARPT   PTSUNNY   75  70  83 S7        30.12S
LORAIN-ELYRIA  PTSUNNY   74  69  85 S7        30.12S
ASHTABULA      PTSUNNY   75  68  78 SW6       30.13S
AKRON-CANTON   PTSUNNY   73  67  81 SW8       30.14F
WOOSTER        CLOUDY    73  66  78 S8        30.15S
MANSFIELD      PTSUNNY   76  67  73 SW6       30.14S
YOUNGSTOWN     PTSUNNY   76  68  76 SW8       30.14S
$$

OHZ042-051>053-060>062-070>072-077>081-301700-
  SOUTHWEST OHIO

CITY           SKY/WX    TMP DP  RH WIND       PRES   REMARKS
CINC-COVINGTON PTSUNNY   78  70  76 S7        30.13S
CINC-LUNKEN    PTSUNNY   79  71  76 VRB5      30.12S
HAMILTON       SUNNY     80  70  71 VRB3      30.12S
DAYTON         MOSUNNY   78  71  79 S7        30.13S
WRIGHT-PAT AFB DRIZZLE   79  71  76 S7        30.11F
DAYTON GENERAL MOSUNNY   78  69  73 VRB6      30.12S
WILMINGTON     SUNNY     78  69  73 S7        30.13S
$$

OHZ036-037-039>041-045>050-054>059-063>069-073>076-082>088-301700-
  CENTRAL AND SOUTHEAST OHIO

CITY           SKY/WX    TMP DP  RH WIND       PRES   REMARKS
COLUMBUS       PTSUNNY   77  69  76 S6        30.11F
OSU AIRPORT    PTSUNNY   78  69  73 SW8       30.12F
BOLTON FIELD   SUNNY     79  70  73 SW6       30.13S
RICKENBACK AFB MOSUNNY   79  68  68 S5        30.11F
NEWARK         PTSUNNY   78  70  76 S6        30.12F
MARION         PTSUNNY   75  65  70 SW7       30.12F
LANCASTER      MOSUNNY   80  68  66 SW7       30.13S
ZANESVILLE     PTSUNNY   80  65  59 SW8       30.13F
NEW PHILLY     CLOUDY    77  68  73 S5        30.13F
$$



USA.gov is the U.S. government's official web portal to all federal, state and local government web resources and services.